Location: Sungai Bunut
(2.6333°N, 113.7333°E)
Time: 18:46:58
(UTC+00:00)

Vanguard 3 - Pass Details

Date: 03 December 2023
Orbit: 508 x 3239 km, 33.4° (Epoch: 24 February)

Event Time Altitude Azimuth Distance (km) Brightness Sun altitude
Rises 06:09:29 0° 213° (SSW) 6,011 12.2 52.6°
Reaches altitude 10° 06:16:30 10° 191° (SSW) 5,533 12.0 51.3°
Maximum altitude 06:25:04 15° 161° (SSE) 5,542 11.8 49.7°
Drops below altitude 10° 06:34:28 10° 132° (SE) 6,171 11.7 47.9°
Sets 06:43:10 0° 112° (ESE) 7,115 11.7 46.1°
